www.pogodaiklimat.ru

Погода и климат >> Архив погоды >> Мьянма >> Проме


ПОГОДА в Проме

  • Прогноз погоды в Проме
  • Монитор погоды в Проме

АРХИВ ПОГОДЫ в Проме

Время (UTC), дата Ветер
(напр.,м/с)
 
Видим.   Явления Облачность Т
(С)
Тd
(С)
f
(%)
Тe
(С)
Тes
(С)
Комфортность P
(гПа)
Po
(гПа)
Тmin
(С)
Tmax
(С)
R
(мм)
R24
(мм)
S
(см)
00 16.04 штиль 0 6000 м ясно +28.0 +23.3 76 +38 +39 очень
душно
1007.2 1000.4 +27.0
03 16.04 штиль 0 9000 м ясно +31.0 +26.7 78 +48 +66 опасность
перегрева
1009.0 1002.2
06 16.04 С 1 9000 м ясно +36.0 +26.4 58 +53 +78 опасность
перегрева
1009.5 1002.8
09 16.04 штиль 0 9000 м ясно +39.0 +23.3 41 +49 +62 опасность
перегрева
1004.5 997.9
12 16.04 штиль 0 6000 м 4/4 600 м
[Cu Sc]
+35.0 +23.7 52 +46 +46 опасность
перегрева
1003.4 996.7 +39.5
00 17.04 штиль 0 6000 м ясно +28.0 +25.0 84 +40 +41 очень
душно
1006.1 999.3 +27.2
03 17.04 штиль 0 9000 м ясно +31.0 +25.4 72 +45 +63 опасность
перегрева
1008.4 1001.6
06 17.04 штиль 0 9000 м 5/4 600 м
[Cu Sc Ci fib]
+36.8 +24.6 50 +49 +66 опасность
перегрева
1008.4 1001.8
09 17.04 штиль 0 8000 м 9/6 600 м
[Cb cap Ac trans Ci fib]
+36.0 +23.5 49 +47 +50 опасность
перегрева
1004.1 997.5
12 17.04 штиль 0 6000 м 9/6 600 м
[Cb cap Ac trans Ci fib]
+34.0 +20.6 46 +41 +41 опасность
перегрева
1003.4 996.7 +38.0
00 18.04 штиль 0 6000 м 9/6 600 м
[Cb cap Ac trans Ci fib]
+28.0 +22.0 70 +36 +36 очень
душно
1006.3 999.5 +26.8
03 18.04 штиль 0 9000 м 6/4 600 м
[Cu Sc Ci fib]
+32.0 +23.6 61 +43 +53 опасность
перегрева
1009.2 1002.4
06 18.04 штиль 0 9000 м 6/4 600 м
[Cu Sc Ci fib]
+38.0 +24.0 45 +49 +66 опасность
перегрева
1007.9 1001.3
09 18.04 штиль 0 9000 м 6/4 600 м
[Cu Sc Ci fib]
+41.0 +24.0 38 +51 +59 опасность
перегрева
1003.6 997.1
12 18.04 ЮЗ 3 6000 м 10/6 600 м
[Cb cap Ac trans Ci fib]
+36.0 +21.4 43 +44 +44 опасность
перегрева
1002.9 996.3 +41.4
00 19.04 штиль 0 6000 м 4/4 600 м
[Cu Sc]
+27.4 +24.0 82 +38 +38 очень
душно
1004.4 997.6 +26.8
03 19.04 ЮЗ 2 9000 м ясно +31.0 +23.7 65 +42 +56 опасность
перегрева
1006.4 999.6
06 19.04 штиль 0 9000 м ясно +36.4 +23.5 48 +47 +77 опасность
перегрева
1005.8 999.2
09 19.04 штиль 0 9000 м ясно +41.6 +22.6 34 +50 +63 опасность
перегрева
1002.1 995.6
12 19.04 ЮЗ 3 6000 м 8/6 600 м
[Cu Sc Ci fib]
+37.4 +20.7 38 +44 +44 опасность
перегрева
1001.1 994.5 +42.0
00 20.04 штиль 0 6000 м ясно +27.5 +25.0 86 +39 +40 очень
душно
1004.7 997.9 +27.0
03 20.04 штиль 0 9000 м ясно +31.0 +25.4 72 +45 +63 опасность
перегрева
1006.1 999.3
06 20.04 штиль 0 9000 м ясно +35.0 +24.0 53 +47 +76 опасность
перегрева
1005.9 999.2
09 20.04 штиль 0 9000 м ясно +39.5 +23.0 39 +49 +62 опасность
перегрева
1002.4 995.8
12 20.04 штиль 0 6000 м ясно +36.0 +21.4 43 +44 +44 опасность
перегрева
1000.3 993.7 +40.5
00 21.04 штиль 0 6000 м ясно +28.0 +23.3 76 +38 +39 очень
душно
1002.5 995.7 +27.4
03 21.04 штиль 0 9000 м ясно +32.0 +26.5 73 +49 +67 опасность
перегрева
1005.0 998.3
06 21.04 штиль 0 9000 м ясно +37.8 +24.0 45 +49 +78 опасность
перегрева
1004.5 997.9
09 21.04 штиль 0 8000 м 5/4 600 м
[Cu Sc Ci fib]
+39.4 +23.3 40 +49 +57 опасность
перегрева
1001.0 994.5
12 21.04 штиль 0 6000 м 6/5 600 м
[Cb cap Ci fib]
+37.4 +22.7 43 +47 +47 опасность
перегрева
1000.0 993.4 +40.0
00 22.04 штиль 0 6000 м 6/5 600 м
[Cb cap Ci fib]
+28.0 +23.3 76 +38 +38 очень
душно
1003.6 996.8 +27.2
03 22.04 штиль 0 8000 м 6/5 600 м
[Cu Sc Ci fib]
+32.0 +23.6 61 +43 +52 опасность
перегрева
1005.7 999.0
06 22.04 штиль 0 9000 м 6/5 600 м
[Cb cap Ci fib]
+36.0 +23.5 49 +47 +61 опасность
перегрева
1004.9 998.3
09 22.04 штиль 0 8000 м 6/5 600 м
[Cb cap Ci fib]
+41.0 +23.0 36 +50 +56 опасность
перегрева
1001.5 995.0
12 22.04 штиль 0 6000 м 6/5 600 м
[Cb cap Ci fib]
+38.0 +22.1 40 +46 +46 опасность
перегрева
1000.5 993.9 +41.4

 

Местоположение метеостанции Проме (Мьянма): широта 18.80 долгота 95.22 высота над уровнем моря 60 м.

В архиве по умолчанию представлена погода в Проме за последнюю неделю. Архивные данные за месяц целиком и за предыдущие месяцы, начиная с января 2011 года, Вы можете получить, выбрав интересующий диапазон дат из раскрывающегося списка и нажав кнопку "Ввод!".


*Определитесь, кто Вы:
робот инопланетянин человек

Внимание! Время в таблицах - всемирное. Для получения местного времени необходимо прибавить поправку, которая равна 6.5 ч.

Смотрите также архив погоды в соседних городах и на ближайших метеорологических станциях:

Погода в Тандве (Мьянма) (99 км)
Погода в Хинтаде (Мьянма) (127 км)
Погода в Таунгу (Мьянма) (132 км)
Погода в Пьинмане (Мьянма) (147 км)
Погода в Гва (Мьянма) (152 км)
Погода в Магуэе (Мьянма) (153 км)
Погода в Минбу (Мьянма) (156 км)
Погода в Манаунге (Мьянма) (157 км)
Погода в Кяокпю (Мьянма) (189 км)
Погода в Хмавби (Мьянма) (207 км)

Пояснения к столбцам:

Ветер - указаны скорость ветра в м/с - средняя за 10 мин, порывы в срок и между сроками (в фигурных скобках) и направление, откуда дует ветер: С - северный, СВ - северо-восточный, В - восточный, ЮВ - юго-восточный, Ю - южный, ЮЗ - юго-западный, З - западный, СЗ - северо-западный.
Видимость - горизонтальная дальность видимости в метрах или километрах. При видимости от 1 до 10 км при отсутствии осадков обычно наблюдается дымка, при ухудшении видимости до 1 км и менее - туман. В сухую погоду видимость может ухудшаться дымом, пылью или мглою.
Явления - указаны атмосферные явления, наблюдавшиеся в срок или в последний час перед сроком; фигурными скобками обозначены явления, наблюдавшиеся между сроками (за 1-3 часа до срока); квадратными скобками обозначены град или гололедные отложения с указанием их диаметра в мм.
Облачность - указаны через наклонную черту общая и нижняя облачность в баллах и высота нижней границы облаков в метрах; квадратными скобками обозначены формы облаков: Ci - перистые, Cs - перисто-слоистые, Cc - перисто-кучевые, Ac - высококучевые, As - высокослоистые, Sc - слоисто-кучевые, Ns - слоисто-дождевые, Cu - кучевые, Cb - кучево-дождевые. Подробнее классификацию облаков см. в Атласе облаков (PDF).
T - Температура воздуха - температура, измеренная на высоте 2 м над землей.
Td - Температура точки росы - температура, при понижении до которой содержащийся в воздухе водяной пар достигнет насыщения.
f - Относительная влажность воздуха - влажноcть воздуха, измеренная на высоте 2 м над землей.
Te - Эффективная температура - температура, которую ощущает одетый по сезону человек в тени. Характеристика душности погоды. При расчете учитывается влияние влажности воздуха и скорости ветра на теплоощущения человека.
Tes - Эффективная температура на солнце - температура, которую ощущает человек, с поправкой на солнечный нагрев. Характеристика знойности погоды. Зависит от высоты солнца над горизонтом, облачности и скорости ветра. Ночью, в пасмурную погоду, а также при ветре 12 м/с и более поправка равна нулю.
P - Атмосферное давление - приведенное к уровню моря атмосферное давление.
Po - Атмосферное давление - измеренное на уровне метеостанции атмосферное давление.
Tmin - Минимальная температура - минимум температуры воздуха на высоте 2 м над землей.
Tmax - Максимальная температура - максимум температуры воздуха на высоте 2 м над землей.
R - Количество осадков - Количество выпавших осадков за период времени, мм. При наведении курсора мыши на число - период времени, за который выпало указанное количество осадков.
R24 - Количество осадков - Количество выпавших осадков за 24 часа, мм.
S - Снежный покров - Высота снежного покрова, см. При наведении курсора мыши на число - состояние снежного покрова и степень покрытия местности в баллах.